Flag for Switzerland Weather past 2 weeks in Bellinzona, Ticino, Switzerland

Now
45 °F

Cool.


Feels Like: 39 °F
Forecast: 24 / 44 °F
Wind: 15 mph from East

Location: Locarno-Magadino

Current Time: Jan 27, 2015 at 8:35:27 PM

Latest Report: Jan 27, 2015 at 7:00 PM


Visibility: N/A

Pressure: 30.04 "Hg

Humidity: 26%

Dew point: 12 °F

Location of BellinzonaLocation

Historic Weather in Bellinzona — Graph

°F

Bellinzona temperature yesterday

Maximum temperature yesterday: 42 °F (at 3:00 PM)
Minimum temperature yesterday: 27 °F (at 8:00 AM)
Average temperature yesterday: 36 °F

Past Weeks' High & Low Weather Summary

 TemperatureHumidityPressure
High54 °F (Jan 23, 3:00 PM)100% (Jan 18, 6:00 AM)30.45 "Hg (Jan 18, 6:00 AM)
Low26 °F (Jan 13, 6:00 AM)16% (Jan 24, 7:00 PM)29.80 "Hg (Jan 24, 5:00 PM)
Average37 °F76%30.05 "Hg
* Reported Jan 12 7:00 PM — Jan 27 7:00 PM, Bellinzona, Weather by CustomWeather, © 2014

Note: Actual official high and low records may vary slightly from our data, if they occured in-between our weather recording intervals... More about our weather records

Advertising

Bellinzona weather history for previous 24 hours

 ConditionsComfort  
Time TempWeatherWind HumidityBarometerVisibility
7:00 PM
Jan 27
45 °FCool.15 mph26%30.04 "HgN/A
6:00 PM47 °FCool.17 mph23%30.02 "HgN/A
5:00 PM48 °FCool.18 mph20%30.00 "HgN/A
4:00 PM50 °FCool.18 mph20%29.98 "HgN/A
3:00 PM52 °FCool.20 mph19%29.97 "HgN/A
2:00 PM48 °FCool.2 mph44%29.98 "HgN/A
1:00 PM43 °FQuite cool.6 mph49%29.99 "HgN/A
12:00 PM39 °FChilly.5 mph60%30.01 "HgN/A
11:00 AM36 °FChilly.2 mph63%30.03 "HgN/A
10:00 AM32 °FChilly.1 mph86%30.04 "HgN/A
9:00 AM29 °FChilly.2 mph82%30.05 "HgN/A
8:00 AM28 °FChilly.1 mph88%30.05 "HgN/A
7:00 AM28 °FChilly.1 mph83%30.05 "HgN/A
6:00 AM27 °FChilly.2 mph87%30.06 "HgN/A
5:00 AM27 °FChilly.1 mph90%30.08 "HgN/A
3:00 AM29 °FChilly.2 mph83%30.13 "HgN/A
2:00 AM29 °FChilly.1 mph82%30.14 "HgN/A
1:00 AM29 °FChilly.1 mph86%30.17 "HgN/A
12:00 AM28 °FChilly.2 mph89%30.19 "HgN/A
11:00 PM
Jan 26
30 °FChilly.1 mph90%30.19 "HgN/A
10:00 PM31 °FChilly.1 mph84%30.19 "HgN/A
9:00 PM34 °FChilly.1 mph66%30.20 "HgN/A
8:00 PM33 °FChilly.No wind74%30.21 "HgN/A
Weather by CustomWeather, © 2014

See weather overviewHow to use our weather pages